Location: Audinghen
(50.8518°N, 1.6129°E)
Time: 06:34:07
(UTC+00:00)

Cosmos 2279 Rocket - Pass Details

Date: 07 August 2020
Orbit: 965 x 978 km, 82.9° (Epoch: 23 September)

Event Time Altitude Azimuth Distance (km) Brightness Sun altitude
Exits shadow 01:44:44 24° 170° (S) 1,879 5.0 -19.0°
Maximum altitude 01:48:32 66° 95° (E) 1,051 4.2 -18.7°
Drops below altitude 10° 01:54:42 10° 14° (NNE) 2,720 7.5 -18.2°
Sets 01:57:14 0° 12° (NNE) 3,673 8.4 -18.0°
